{"data":{"norad_id":59419,"epoch":"2026-05-24T22:43:50.394720Z","epoch_age_seconds":72810,"freshness":"FRESH","line1":"1 59419U 24064X   26144.94711105  .00001814  00000+0  75469-4 0  9997","line2":"2 59419  43.0058 345.9213 0002575 274.8993  85.1564 15.27569895120883","mean_motion":15.27569895,"eccentricity":0.0002575,"inclination_deg":43.0058,"raan_deg":345.9213,"arg_perigee_deg":274.8993,"mean_anomaly_deg":85.1564,"bstar":7.5469e-5,"rev_number":12088,"period_min":94.267372295917,"perigee_km":481.3125910005,"apogee_km":484.84611742292,"semimajor_km":6861.2163542117,"source":"CELESTRAK","updated_at":"2026-05-25T13:38:18.943329Z"}}